Location: Bow
(51.5261°N, 0.0167°W)
Time: 14:45:09
(UTC+00:00)

Cosmos 494 Rocket - Pass Details

Date: 18 September 2020
Orbit: 741 x 771 km, 74.1° (Epoch: 27 October)

Event Time Altitude Azimuth Distance (km) Brightness Sun altitude
Rises 19:55:23 0° 335° (NNW) 3,243 8.1 -17.1°
Reaches altitude 10° 19:57:46 10° 337° (NNW) 2,317 7.2 -17.5°
Maximum altitude 20:03:03 76° 63° (ENE) 800 3.9 -18.2°
Enters shadow 20:05:37 31° 144° (SE) 1,331 4.7 -18.6°
